Weather History for Blytheville Muni Airport, AR

Change the Weather History Date:

Saturday, April 27, 2013

  Actual Average Record
Temperature  
Mean Temperature 56 °F -  
Max Temperature 62 °F 76 °F 90 °F (1989)
Min Temperature 51 °F 55 °F 38 °F (1937)
Degree Days  
Heating Degree Days 9    
Growing Degree Days 6 (Base 50)    
Moisture  
Dew Point 56 °F    
Average Humidity 95    
Maximum Humidity 100    
Minimum Humidity 88    
Precipitation  
Precipitation 2.12 in - - ()
Sea Level Pressure  
Sea Level Pressure 30.03 in    
Wind  
Wind Speed 9 mph (East)    
Max Wind Speed 17 mph    
Max Gust Speed 22 mph    
Visibility 5 miles    
Events Rain , Thunderstorm    
Averages and records for this station are not official NWS values.
T = Trace of Precipitation, MM = Missing Value Source: NWS Daily Summary

Daily Weather History Graph

Daily Weather History Graph

Search for Another Location

Airport:

Trip Planner

Search our weather history database for the weather conditions in past years. The results will help you decide how hot, cold, wet, or windy it might be!

Date:

Astronomy

Apr. 27, 2013 Rise Set
Actual Time 6:11 AM CDT 7:43 PM CDT
Civil Twilight 5:43 AM CDT 8:10 PM CDT
Nautical Twilight 5:11 AM CDT 8:43 PM CDT
Astronomical Twilight 4:37 AM CDT 9:17 PM CDT
Moon 10:09 PM CDT (4/27) 7:32 AM CDT (4/27)
Length of Visible Light 14h 26m
Length of Day
13h 32m
Waning Gibbous, 95% of the Moon is Illuminated
Apr 27
Waning Gibbous
May 2
Last Quarter
May 9
New
May 17
First Quarter
May 24
Full

Hourly Weather History & Observations

Time (CDT) Temp. Dew Point Humidity Pressure Visibility Wind Dir Wind Speed Gust Speed Precip Events Conditions
12:53 AM 52.0 °F 50.0 °F 93% 30.23 in 10.0 mi East 9.2 mph - N/A   Overcast
1:53 AM 53.1 °F 50.0 °F 89% 30.19 in 10.0 mi ESE 11.5 mph - N/A Thunderstorm Thunderstorm
2:13 AM 53.6 °F 50.0 °F 88% 30.18 in 10.0 mi ESE 11.5 mph - 0.00 in Rain Light Rain
2:53 AM 53.1 °F 50.0 °F 89% 30.15 in 10.0 mi SE 8.1 mph - 0.05 in Rain Light Rain
3:53 AM 52.0 °F 51.1 °F 97% 30.19 in 3.0 mi North 13.8 mph - 0.19 in Rain Heavy Rain
4:53 AM 52.0 °F 51.1 °F 97% 30.15 in 6.0 mi ENE 9.2 mph 17.3 mph 0.15 in Rain Rain
5:25 AM 51.8 °F 51.8 °F 100% 30.13 in 4.0 mi East 13.8 mph - 0.09 in Rain , Thunderstorm Heavy Thunderstorms and Rain
5:50 AM 53.6 °F 51.8 °F 94% 30.13 in 3.0 mi East 10.4 mph - 0.31 in Rain Heavy Rain
5:53 AM 52.0 °F 51.1 °F 97% 30.14 in 4.0 mi East 10.4 mph - 0.32 in Rain Heavy Rain
6:45 AM 53.6 °F 51.8 °F 94% 30.12 in 5.0 mi East 12.7 mph 19.6 mph 0.06 in Rain Heavy Rain
6:51 AM 53.6 °F 51.8 °F 94% 30.12 in 5.0 mi East 9.2 mph - 0.07 in Rain Rain
6:53 AM 53.1 °F 51.1 °F 93% 30.13 in 5.0 mi East 9.2 mph - 0.07 in Rain Rain
7:15 AM 53.6 °F 51.8 °F 94% 30.12 in 4.0 mi East 11.5 mph - 0.04 in Rain , Thunderstorm Thunderstorms and Rain
7:33 AM 53.6 °F 51.8 °F 94% 30.12 in 4.0 mi East 10.4 mph - 0.06 in Rain , Thunderstorm Light Thunderstorms and Rain
7:41 AM 53.6 °F 51.8 °F 94% 30.13 in 3.0 mi ESE 10.4 mph - 0.08 in Rain , Thunderstorm Heavy Thunderstorms and Rain
7:44 AM 53.6 °F 51.8 °F 94% 30.12 in 2.5 mi East 11.5 mph - 0.12 in Rain , Thunderstorm Rain
7:50 AM 53.6 °F 51.8 °F 94% 30.13 in 3.0 mi East 11.5 mph - 0.13 in Rain Rain
7:53 AM 53.1 °F 52.0 °F 96% 30.13 in 2.5 mi East 8.1 mph - 0.15 in Rain , Thunderstorm Rain
7:55 AM 53.6 °F 51.8 °F 94% 30.13 in 3.0 mi East 9.2 mph - 0.00 in Rain , Thunderstorm Rain
8:08 AM 53.6 °F 51.8 °F 94% 30.14 in 4.0 mi East 8.1 mph - 0.02 in Rain , Thunderstorm Light Rain
8:10 AM 53.6 °F 51.8 °F 94% 30.14 in 2.5 mi ENE 6.9 mph - 0.04 in Rain Heavy Rain
8:31 AM 53.6 °F 51.8 °F 94% 30.11 in 5.0 mi East 12.7 mph - 0.07 in Rain Light Rain
8:35 AM 53.6 °F 51.8 °F 94% 30.10 in 9.0 mi East 11.5 mph - 0.07 in Rain Light Rain
8:45 AM 53.6 °F 51.8 °F 94% 30.09 in 8.0 mi ESE 17.3 mph 21.9 mph 0.07 in Rain Light Rain
8:53 AM 54.0 °F 52.0 °F 93% 30.11 in 10.0 mi ESE 13.8 mph 21.9 mph 0.07 in Rain Light Rain
9:53 AM 54.0 °F 52.0 °F 93% 30.12 in 4.0 mi ESE 10.4 mph - 0.00 in Rain Light Rain
10:11 AM 55.4 °F 53.6 °F 94% 30.11 in 4.0 mi ESE 9.2 mph - 0.00 in Rain Light Rain
10:24 AM 55.4 °F 53.6 °F 94% 30.11 in 4.0 mi ESE 10.4 mph - 0.00 in Rain Light Rain
10:48 AM 55.4 °F 53.6 °F 94% 30.11 in 6.0 mi ESE 8.1 mph - 0.00 in   Overcast
10:53 AM 55.9 °F 54.0 °F 93% 30.11 in 7.0 mi ESE 6.9 mph - 0.00 in   Overcast
11:53 AM 57.0 °F 55.9 °F 96% 30.10 in 2.5 mi SE 6.9 mph - N/A   Overcast
12:00 PM 57.2 °F 55.4 °F 94% 30.09 in 2.5 mi SE 5.8 mph - N/A   Overcast
12:12 PM 57.2 °F 55.4 °F 94% 30.09 in 4.0 mi SSE 9.2 mph - N/A   Overcast
12:32 PM 57.2 °F 55.4 °F 94% 30.09 in 4.0 mi SSE 6.9 mph - 0.00 in Rain Light Rain
12:39 PM 57.2 °F 55.4 °F 94% 30.08 in 1.8 mi SSE 8.1 mph - 0.04 in Rain Heavy Rain
12:49 PM 57.2 °F 55.4 °F 94% 30.08 in 3.0 mi SSE 8.1 mph - 0.05 in Rain Light Rain
12:53 PM 57.0 °F 55.9 °F 96% 30.08 in 5.0 mi SSE 9.2 mph - 0.05 in Rain Light Rain
1:23 PM 57.2 °F 55.4 °F 94% 30.06 in 3.0 mi SSE 8.1 mph - 0.01 in Rain Light Rain
1:48 PM 59.0 °F 57.2 °F 94% 30.05 in 4.0 mi SSE 8.1 mph - 0.01 in   Overcast
1:53 PM 59.0 °F 57.9 °F 96% 30.05 in 5.0 mi SSE 9.2 mph - 0.01 in   Overcast
2:53 PM 61.0 °F 59.0 °F 93% 30.00 in 8.0 mi SE 8.1 mph - N/A   Overcast
3:01 PM 60.8 °F 59.0 °F 94% 30.00 in 9.0 mi SE 8.1 mph - N/A Thunderstorm Overcast
3:33 PM 60.8 °F 59.0 °F 94% 29.98 in 4.0 mi SSE 5.8 mph - 0.03 in Rain , Thunderstorm Heavy Thunderstorms and Rain
3:48 PM 60.8 °F 60.8 °F 100% 29.97 in 2.0 mi SSE 5.8 mph - 0.08 in Rain , Thunderstorm Heavy Rain
3:53 PM 61.0 °F 60.1 °F 97% 29.98 in 2.5 mi SSE 4.6 mph - 0.08 in Rain , Thunderstorm Light Rain
4:05 PM 60.8 °F 60.8 °F 100% 29.97 in 1.8 mi Calm Calm - 0.06 in Rain Heavy Rain
4:12 PM 60.8 °F 60.8 °F 100% 29.97 in 1.2 mi Calm Calm - 0.11 in Rain Heavy Rain
4:25 PM 60.8 °F 60.8 °F 100% 29.96 in 2.0 mi SE 3.5 mph - 0.16 in Rain , Thunderstorm Rain
4:32 PM 60.8 °F 60.8 °F 100% 29.96 in 0.8 mi Calm Calm - 0.26 in Rain , Thunderstorm Heavy Rain
4:42 PM 60.8 °F 60.8 °F 100% 29.95 in 1.0 mi NNW 3.5 mph - 0.30 in Rain , Thunderstorm Rain
4:53 PM 61.0 °F 60.1 °F 97% 29.95 in 1.2 mi NNW 4.6 mph - 0.37 in Rain Heavy Rain
5:05 PM 60.8 °F 60.8 °F 100% 29.95 in 2.0 mi North 4.6 mph - 0.03 in Rain , Thunderstorm Light Rain
5:08 PM 60.8 °F 60.8 °F 100% 29.95 in 1.5 mi North 5.8 mph - 0.07 in Rain , Thunderstorm Heavy Rain
5:16 PM 60.8 °F 60.8 °F 100% 29.95 in 1.8 mi North 4.6 mph - 0.08 in Rain Light Rain
5:32 PM 60.8 °F 60.8 °F 100% 29.94 in 1.2 mi NNE 3.5 mph - 0.22 in Rain Rain
5:37 PM 60.8 °F 60.8 °F 100% 29.94 in 2.0 mi North 4.6 mph - 0.22 in Rain Light Rain
5:42 PM 60.8 °F 60.8 °F 100% 29.94 in 4.0 mi Calm Calm - 0.22 in Rain Light Rain
5:53 PM 61.0 °F 60.1 °F 97% 29.94 in 5.0 mi North 4.6 mph - 0.22 in   Overcast
6:37 PM 60.8 °F 60.8 °F 100% 29.93 in 7.0 mi NNE 3.5 mph - 0.00 in   Overcast
6:44 PM 60.8 °F 60.8 °F 100% 29.94 in 8.0 mi NNW 8.1 mph - 0.00 in   Overcast
6:53 PM 61.0 °F 60.1 °F 97% 29.93 in 7.0 mi North 5.8 mph - 0.00 in   Overcast
7:12 PM 60.8 °F 60.8 °F 100% 29.92 in 7.0 mi North 8.1 mph - 0.03 in Rain Light Rain
7:26 PM 60.8 °F 60.8 °F 100% 29.92 in 7.0 mi North 8.1 mph - 0.03 in   Overcast
7:33 PM 60.8 °F 59.0 °F 94% 29.92 in 8.0 mi NNE 5.8 mph - 0.03 in   Overcast
7:53 PM 61.0 °F 59.0 °F 93% 29.92 in 8.0 mi NNE 4.6 mph - 0.03 in Rain Light Rain
8:19 PM 60.8 °F 59.0 °F 94% 29.91 in 8.0 mi North 6.9 mph - 0.01 in Rain , Thunderstorm Light Rain
8:37 PM 60.8 °F 59.0 °F 94% 29.92 in 6.0 mi Calm Calm - 0.02 in Rain , Thunderstorm Light Thunderstorms and Rain
8:42 PM 60.8 °F 59.0 °F 94% 29.92 in 2.0 mi Calm Calm - 0.13 in Rain , Thunderstorm Light Thunderstorms and Rain
8:49 PM 60.8 °F 59.0 °F 94% 29.94 in 1.2 mi WNW 4.6 mph - 0.20 in Rain , Thunderstorm Thunderstorms and Rain
8:53 PM 60.1 °F 59.0 °F 96% 29.94 in 1.5 mi NW 8.1 mph - 0.34 in Rain , Thunderstorm Heavy Thunderstorms and Rain
9:03 PM 60.8 °F 60.8 °F 100% 29.93 in 3.0 mi NNW 6.9 mph - 0.02 in Rain , Thunderstorm Light Rain
9:14 PM 60.8 °F 59.0 °F 94% 29.93 in 7.0 mi WNW 4.6 mph - 0.02 in   Overcast
9:37 PM 60.8 °F 59.0 °F 94% 29.94 in 10.0 mi WNW 4.6 mph - 0.02 in   Scattered Clouds
9:44 PM 60.8 °F 59.0 °F 94% 29.95 in 9.0 mi WNW 5.8 mph - 0.02 in   Mostly Cloudy
9:53 PM 60.1 °F 59.0 °F 96% 29.95 in 9.0 mi WNW 3.5 mph - 0.02 in   Mostly Cloudy
10:01 PM 60.8 °F 59.0 °F 94% 29.95 in 10.0 mi West 4.6 mph - N/A   Overcast
10:34 PM 60.8 °F 57.2 °F 88% 29.95 in 10.0 mi NW 9.2 mph - N/A   Overcast
10:53 PM 59.0 °F 57.9 °F 96% 29.95 in 10.0 mi NW 8.1 mph - N/A   Overcast
11:28 PM 57.2 °F 57.2 °F 100% 29.94 in 10.0 mi NNW 10.4 mph - N/A   Overcast
11:53 PM 57.9 °F 55.9 °F 93% 29.95 in 10.0 mi NW 9.2 mph - N/A   Overcast